Flag for Netherlands Weather past 2 weeks in Utrecht, Netherlands

Now
54 °F

Passing clouds.


Feels Like: 47 °F
Forecast: 49 / 51 °F
Wind: 31 mph from Southwest

Location: Amsterdam Schiphol Airport

Current Time: Dec 22, 2014 at 7:40:11 PM

Latest Report: Dec 22, 2014 at 6:55 PM


Visibility: N/A

Pressure: 29.95 "Hg

Humidity: 82%

Dew point: 48 °F

Location of UtrechtLocation

Historic Weather in Utrecht — Graph

°F

Utrecht temperature yesterday

Maximum temperature yesterday: 52 °F (at 11:25 PM)
Minimum temperature yesterday: 41 °F (at 5:25 AM)
Average temperature yesterday: 46 °F

Past Weeks' High & Low Weather Summary

 TemperatureHumidityPressure
High55 °F (Dec 18, 12:55 PM)100% (Dec 9, 2:25 AM)30.33 "Hg (Dec 9, 2:25 AM)
Low28 °F (Dec 9, 5:55 AM)61% (Dec 11, 4:25 PM)29.27 "Hg (Dec 12, 8:25 AM)
Average45 °F84%29.88 "Hg
* Reported Dec 7 6:25 PM — Dec 22 6:25 PM, Utrecht, Weather by CustomWeather, © 2014

Note: Actual official high and low records may vary slightly from our data, if they occured in-between our weather recording intervals... More about our weather records

Advertising

Utrecht weather history for previous 24 hours

 ConditionsComfort  
Time TempWeatherWind HumidityBarometerVisibility
6:25 PM
Dec 22
54 °FPassing clouds.28 mph82%29.95 "HgN/A
5:55 PM54 °FPassing clouds.30 mph82%29.95 "HgN/A
5:25 PM54 °FPassing clouds.31 mph82%29.95 "HgN/A
4:55 PM54 °FPassing clouds.28 mph82%29.95 "HgN/A
4:25 PM54 °FPartly sunny.28 mph82%29.98 "HgN/A
3:55 PM54 °FPartly sunny.29 mph82%29.95 "HgN/A
3:25 PM54 °FBroken clouds.29 mph82%29.95 "HgN/A
2:55 PM54 °FBroken clouds.28 mph82%29.95 "HgN/A
2:25 PM54 °FBroken clouds.30 mph88%29.95 "HgN/A
1:55 PM54 °FScattered clouds.32 mph88%29.95 "HgN/A
1:25 PM54 °FBroken clouds.32 mph88%29.95 "HgN/A
12:55 PM54 °FBroken clouds.32 mph88%29.95 "HgN/A
12:25 PM54 °FBroken clouds.32 mph88%29.95 "HgN/A
10:55 AM55 °FBroken clouds.37 mph82%29.95 "HgN/A
10:25 AM55 °FMore clouds than sun.35 mph82%29.95 "HgN/A
9:55 AM54 °FPartly sunny.32 mph88%29.95 "HgN/A
9:25 AM54 °FPartly sunny.31 mph88%29.95 "HgN/A
8:55 AM54 °FMostly cloudy.32 mph88%29.98 "HgN/A
8:25 AM54 °FMostly cloudy.32 mph88%29.98 "HgN/A
7:55 AM54 °FPartly cloudy.31 mph88%29.95 "HgN/A
7:25 AM54 °FMostly cloudy.35 mph88%29.95 "HgN/A
6:55 AM54 °FPassing clouds.32 mph88%29.95 "HgN/A
6:25 AM54 °FPassing clouds.36 mph88%29.95 "HgN/A
5:55 AM54 °FPassing clouds.35 mph88%29.95 "HgN/A
5:25 AM54 °FPassing clouds.32 mph88%29.98 "HgN/A
4:25 AM52 °FPassing clouds.30 mph88%29.98 "HgN/A
3:55 AM52 °FPassing clouds.32 mph88%30.01 "HgN/A
3:25 AM52 °FPassing clouds.30 mph88%30.01 "HgN/A
2:55 AM52 °FPassing clouds.31 mph88%30.01 "HgN/A
2:25 AM52 °FPassing clouds.32 mph88%30.04 "HgN/A
1:55 AM52 °FPassing clouds.32 mph88%30.04 "HgN/A
1:25 AM52 °FPassing clouds.28 mph88%30.04 "HgN/A
12:55 AM52 °FPassing clouds.31 mph88%30.04 "HgN/A
12:25 AM52 °FPassing clouds.29 mph88%30.07 "HgN/A
11:25 PM
Dec 21
52 °FPassing clouds.30 mph82%30.07 "HgN/A
10:25 PM50 °FPassing clouds.26 mph82%30.09 "HgN/A
9:55 PM50 °FPassing clouds.29 mph82%30.09 "HgN/A
9:25 PM50 °FPassing clouds.26 mph76%30.09 "HgN/A
8:55 PM50 °FPassing clouds.26 mph76%30.12 "HgN/A
8:25 PM50 °FPassing clouds.28 mph76%30.12 "HgN/A
7:25 PM48 °FPassing clouds.25 mph82%30.12 "HgN/A
Weather by CustomWeather, © 2014

See weather overviewHow to use our weather pages